Tracking 30743 objects as of 21-Jun-2025
HD Live streaming from Space Station
objects crossing your sky now

COSMOS 917 DEB

Track COSMOS 917 DEB now!


NORAD ID: 26964
Int'l Code: 1977-047E
Perigee: 1,142.1 km
Apogee: 38,869.6 km
Inclination: 63.3 °
Period: 710.5 minutes
Semi major axis: 26376 km
RCS: 0.2518 m2 (medium)
Launch date: June 16, 1977
Source: Commonwealth of Independent States (former USSR) (CIS)
Launch site: PLESETSK MISSILE AND SPACE COMPLEX (PKMTR)

Note: This is SATELLITE DEBRIS
Your satellite tracking list
Your tracking list is empty




NASA's NSSDC Master Catalog

Two Line Element Set (TLE):
1 26964U 77047E   25172.43548659 -.00000994  00000-0  00000-0 0  9996
2 26964  63.3326 342.2703 7151639  34.6084 355.8465  2.02660254570061
Source of the keplerian elements: AFSPC